星链-35045 (STARLINK-35045)

导读

STARLINK-35045是美国SpaceX公司星链(Starlink)项目的卫星,于2025年9月3日发射升空。作为星链星座组网的一部分,它主要用于为全球用户提供低延迟、高速率的宽带互联网服务,进一步完善了星链星座的覆盖能力,提升了其在全球通信服务领域的部署进度。

Basic Information
目录编号:
65439
目录名称:
STARLINK-35045
国际标识:
2025-194F
轨道中心:
EARTH
卫星名称:
星链-35045
卫星全名:
星链-35045 (STARLINK-35045)
卫星状态:
在轨 (已飞行366 天)
发射日期:
2025-09-03 UTC
国别 :
美国 (US)
星等 :
--
Orbit Information
数据来源 国际轨道数据 AOE轨道数据
星历时间 2026-09-03T21:09:03+0800
15小时前
查看轨道信息
2026-09-03T23:00:00+0800
13小时前
查看轨道信息
半长轴 6843.65km 6843.704km
偏心率 0.0001474 0.0001681
轨道倾角 97.287° 97.285°
近地点辐角 78.434° 90.393°
升交点赤经 96.490° 96.564°
平近点角 281.707° 334.820°
近地点 464.504km 464.416km
远地点 466.522km 466.718km
周期 93.906分钟 93.907分钟
每日圈数 15.334553 15.33437
Detailed Information
固有亮度:
5
最大亮度:
2.5
卫星平台:
Starlink V1.0
覆盖范围:
全球
运营商:
太空探索技术公司
运营商所在国:
美国
制造商(研发单位):
太空探索技术公司
制造商所在国:
美国
使用方式:
暂无
Satellite Introduction
Starlink 计划是 SpaceX 推出的全球卫星互联网项目,通过发射低轨道卫星,为全球尤其是偏远地区提供高速、低延迟的互联网服务。自 2019 年起,Starlink 已部署数千颗卫星,旨在缩小全球数字鸿沟,推动互联网普及。该项目还为军事、航空等行业提供通信支持,带来广泛经济效益。
2D Orbit Map
3D Orbit Map
Orbit Altitude Analysis Chart
Orbit Inclination Analysis Chart
Orbit Comprehensive Analysis Chart
View Comprehensive Chart
Conjunction Data List
Event ID Objects TCA Miss Dist (km) Collision Risk Probability Collision Risk Index (CRI) Action
CDM_260827-215705-020006-543921
2026-08-27T
21:57:12+0000
2.043 km
极远距离
2.314177E-6 低风险 0.42
CDM_260905-021104-832006-543921
2026-09-05T
02:11:02+0000
2.446 km
极远距离
1.660355E-6 低风险 0.39
CDM_260904-163605-197206-543921
2026-09-04T
16:36:10+0000
2.581 km
极远距离
1.656381E-6 低风险 0.39
CDM_260904-233006-543906-635821
2026-09-04T
23:30:29+0000
2.903 km
极远距离
8.554942E-7 极低风险 0.34
CDM_260904-210906-543906-635822
2026-09-04T
21:09:19+0000
2.941 km
极远距离
8.447861E-7 极低风险 0.34